Time,TemperatureF,DewpointF,PressureIn,WindDirection,WindDirectionDegrees,WindSpeedMPH,WindSpeedGustMPH,Humidity,HourlyPrecipIn,Conditions,Clouds,dailyrainin,SoftwareType,DateUTC
2013-05-14 00:03:00,80.0,74.0,30.03,NNW,329,12.0,20.0,81,0.00,,,0.00,,2013-05-14 04:03:00,
2013-05-14 00:13:00,80.0,74.0,30.03,NNW,329,12.0,20.0,81,0.00,,,0.00,,2013-05-14 04:13:00,
2013-05-14 00:23:00,80.0,73.0,30.02,NW,318,11.0,17.0,80,0.00,,,0.00,,2013-05-14 04:23:00,
2013-05-14 00:32:00,80.0,73.0,30.02,NNW,330,11.0,17.0,80,0.00,,,0.00,,2013-05-14 04:32:00,
2013-05-14 00:43:00,80.0,73.0,30.02,NNW,330,11.0,17.0,80,0.00,,,0.00,,2013-05-14 04:43:00,
2013-05-14 00:53:00,80.0,74.0,30.02,NNW,347,11.0,15.0,81,0.00,,,0.00,,2013-05-14 04:53:00,
2013-05-14 01:02:00,80.0,74.0,30.02,North,360,9.0,16.0,82,0.00,,,0.00,,2013-05-14 05:02:00,
2013-05-14 01:12:00,80.0,74.0,30.02,North,360,9.0,16.0,82,0.00,,,0.00,,2013-05-14 05:12:00,
2013-05-14 01:22:00,79.0,74.0,30.02,NE,37,2.0,12.0,85,0.00,,,0.00,,2013-05-14 05:22:00,
2013-05-14 01:32:00,79.0,74.0,30.01,ENE,65,3.0,12.0,85,0.00,,,0.00,,2013-05-14 05:32:00,
2013-05-14 01:42:00,79.0,74.0,30.01,ENE,65,3.0,12.0,85,0.00,,,0.00,,2013-05-14 05:42:00,
2013-05-14 01:52:00,79.0,74.0,30.01,NNE,32,5.0,13.0,84,0.00,,,0.00,,2013-05-14 05:52:00,
2013-05-14 02:01:00,79.0,74.0,30.01,NE,44,0.0,10.0,84,0.00,,,0.00,,2013-05-14 06:01:00,
2013-05-14 02:12:00,79.0,74.0,30.01,NE,44,0.0,10.0,84,0.00,,,0.00,,2013-05-14 06:12:00,
2013-05-14 02:22:00,79.0,74.0,30.00,ENE,59,5.0,8.0,85,0.00,,,0.00,,2013-05-14 06:22:00,
2013-05-14 02:32:00,79.0,74.0,30.00,NE,47,4.0,12.0,85,0.00,,,0.00,,2013-05-14 06:32:00,
2013-05-14 02:42:00,79.0,74.0,30.00,NE,47,4.0,12.0,85,0.00,,,0.00,,2013-05-14 06:42:00,
2013-05-14 02:52:00,79.0,74.0,30.00,NNE,25,4.0,11.0,85,0.00,,,0.00,,2013-05-14 06:52:00,
2013-05-14 03:02:00,79.0,74.0,30.00,ENE,61,6.0,10.0,86,0.00,,,0.00,,2013-05-14 07:02:00,
2013-05-14 03:11:00,79.0,74.0,30.00,ENE,61,6.0,10.0,86,0.00,,,0.00,,2013-05-14 07:11:00,
2013-05-14 03:21:00,78.0,73.0,29.99,NE,41,8.0,11.0,85,0.00,,,0.00,,2013-05-14 07:21:00,
2013-05-14 03:32:00,78.0,73.0,29.99,ENE,69,10.0,14.0,85,0.00,,,0.00,,2013-05-14 07:32:00,
2013-05-14 03:42:00,79.0,73.0,29.99,NE,43,5.0,12.0,83,0.00,,,0.00,,2013-05-14 07:42:00,
2013-05-14 03:52:00,79.0,73.0,29.99,NE,43,5.0,12.0,83,0.00,,,0.00,,2013-05-14 07:52:00,
2013-05-14 04:02:00,79.0,73.0,30.00,NNE,31,4.0,11.0,83,0.00,,,0.00,,2013-05-14 08:02:00,
2013-05-14 04:11:00,79.0,73.0,30.00,NNE,31,4.0,11.0,83,0.00,,,0.00,,2013-05-14 08:11:00,
2013-05-14 04:21:00,79.0,74.0,29.99,ENE,59,9.0,13.0,84,0.00,,,0.00,,2013-05-14 08:21:00,
2013-05-14 04:32:00,79.0,73.0,30.00,ENE,61,8.0,13.0,83,0.00,,,0.00,,2013-05-14 08:32:00,
2013-05-14 04:42:00,78.0,72.0,30.00,NE,42,5.0,12.0,82,0.00,,,0.00,,2013-05-14 08:42:00,
2013-05-14 04:52:00,78.0,72.0,30.00,NE,42,5.0,12.0,82,0.00,,,0.00,,2013-05-14 08:52:00,
2013-05-14 05:02:00,79.0,73.0,30.00,NE,52,1.0,14.0,82,0.00,,,0.00,,2013-05-14 09:02:00,
2013-05-14 05:11:00,79.0,73.0,30.00,NE,52,1.0,14.0,82,0.00,,,0.00,,2013-05-14 09:11:00,
2013-05-14 05:22:00,79.0,73.0,30.01,NE,34,5.0,11.0,83,0.00,,,0.00,,2013-05-14 09:22:00,
2013-05-14 05:32:00,79.0,74.0,30.00,ENE,64,4.0,8.0,84,0.00,,,0.00,,2013-05-14 09:32:00,
2013-05-14 05:44:00,78.0,73.0,30.01,ENE,69,7.0,15.0,84,0.00,,,0.00,,2013-05-14 09:44:00,
2013-05-14 05:54:00,78.0,73.0,30.01,ENE,69,7.0,15.0,84,0.00,,,0.00,,2013-05-14 09:54:00,
2013-05-14 06:05:00,79.0,74.0,30.01,ENE,63,10.0,14.0,84,0.00,,,0.00,,2013-05-14 10:05:00,
2013-05-14 06:14:00,79.0,74.0,30.01,ENE,63,10.0,14.0,84,0.00,,,0.00,,2013-05-14 10:14:00,
2013-05-14 06:25:00,79.0,74.0,30.01,North,11,5.0,12.0,84,0.00,,,0.00,,2013-05-14 10:25:00,
2013-05-14 06:33:00,79.0,74.0,30.02,NE,34,6.0,16.0,85,0.00,,,0.00,,2013-05-14 10:33:00,
2013-05-14 06:42:00,79.0,74.0,30.02,NE,34,6.0,16.0,85,0.00,,,0.00,,2013-05-14 10:42:00,
2013-05-14 06:53:00,78.0,73.0,30.02,NNE,18,7.0,15.0,85,0.00,,,0.00,,2013-05-14 10:53:00,
2013-05-14 07:02:00,78.0,73.0,30.03,NNE,23,6.0,15.0,86,0.00,,,0.00,,2013-05-14 11:02:00,
2013-05-14 07:11:00,78.0,73.0,30.03,NNE,23,6.0,15.0,86,0.00,,,0.00,,2013-05-14 11:11:00,
2013-05-14 07:22:00,77.0,73.0,30.03,NNE,32,5.0,15.0,87,0.00,,,0.00,,2013-05-14 11:22:00,
2013-05-14 07:32:00,77.0,73.0,30.03,NNE,13,6.0,14.0,87,0.00,,,0.00,,2013-05-14 11:32:00,
2013-05-14 07:43:00,77.0,73.0,30.03,NNE,13,6.0,14.0,87,0.00,,,0.00,,2013-05-14 11:43:00,
2013-05-14 07:53:00,77.0,73.0,30.04,NNE,24,5.0,13.0,87,0.00,,,0.00,,2013-05-14 11:53:00,
2013-05-14 08:03:00,77.0,73.0,30.04,NE,40,6.0,14.0,87,0.00,,,0.00,,2013-05-14 12:03:00,
2013-05-14 08:12:00,77.0,73.0,30.04,NE,40,6.0,14.0,87,0.00,,,0.00,,2013-05-14 12:12:00,
2013-05-14 08:21:00,77.0,72.0,30.05,North,350,5.0,12.0,86,0.00,,,0.00,,2013-05-14 12:21:00,
2013-05-14 08:32:00,78.0,72.0,30.05,NE,36,5.0,15.0,83,0.00,,,0.00,,2013-05-14 12:32:00,
2013-05-14 08:42:00,78.0,72.0,30.05,NE,36,5.0,15.0,83,0.00,,,0.00,,2013-05-14 12:42:00,
2013-05-14 08:52:00,78.0,73.0,30.06,NE,34,4.0,13.0,85,0.00,,,0.00,,2013-05-14 12:52:00,
2013-05-14 09:01:00,78.0,72.0,30.06,ENE,71,7.0,13.0,83,0.00,,,0.00,,2013-05-14 13:01:00,
2013-05-14 09:11:00,78.0,72.0,30.06,ENE,71,7.0,13.0,83,0.00,,,0.00,,2013-05-14 13:11:00,
2013-05-14 09:22:00,79.0,71.0,30.06,ENE,69,12.0,23.0,76,0.00,,,0.00,,2013-05-14 13:22:00,
2013-05-14 09:32:00,79.0,70.0,30.07,ENE,59,12.0,21.0,74,0.00,,,0.00,,2013-05-14 13:32:00,
2013-05-14 09:42:00,79.0,70.0,30.07,ENE,59,12.0,21.0,74,0.00,,,0.00,,2013-05-14 13:42:00,
2013-05-14 09:52:00,79.0,70.0,30.07,ENE,59,12.0,21.0,74,0.00,,,0.00,,2013-05-14 13:52:00,
2013-05-14 10:01:00,79.0,70.0,30.07,NE,54,16.0,21.0,73,0.00,,,0.00,,2013-05-14 14:01:00,
2013-05-14 10:11:00,79.0,69.0,30.08,NE,49,11.0,25.0,72,0.00,,,0.00,,2013-05-14 14:11:00,
2013-05-14 10:22:00,79.0,69.0,30.08,NE,49,11.0,25.0,72,0.00,,,0.00,,2013-05-14 14:22:00,
2013-05-14 10:32:00,79.0,69.0,30.08,ENE,74,18.0,24.0,71,0.00,,,0.00,,2013-05-14 14:32:00,
2013-05-14 10:42:00,79.0,69.0,30.08,ENE,74,18.0,24.0,71,0.00,,,0.00,,2013-05-14 14:42:00,
2013-05-14 10:53:00,79.0,69.0,30.09,ENE,70,8.0,22.0,71,0.00,,,0.00,,2013-05-14 14:53:00,
2013-05-14 11:01:00,79.0,69.0,30.09,ENE,57,13.0,22.0,71,0.00,,,0.00,,2013-05-14 15:01:00,
2013-05-14 11:12:00,79.0,69.0,30.09,ENE,57,13.0,22.0,71,0.00,,,0.00,,2013-05-14 15:12:00,
2013-05-14 11:22:00,79.0,68.0,30.09,East,90,16.0,22.0,70,0.00,,,0.00,,2013-05-14 15:22:00,
2013-05-14 11:33:00,80.0,69.0,30.09,NE,44,14.0,20.0,70,0.00,,,0.00,,2013-05-14 15:33:00,
2013-05-14 11:43:00,81.0,69.0,30.10,NE,55,11.0,24.0,67,0.00,,,0.00,,2013-05-14 15:43:00,
2013-05-14 11:53:00,81.0,69.0,30.10,NE,55,11.0,24.0,67,0.00,,,0.00,,2013-05-14 15:53:00,
2013-05-14 12:02:00,81.0,69.0,30.10,East,79,14.0,20.0,68,0.00,,,0.00,,2013-05-14 16:02:00,
2013-05-14 12:12:00,81.0,69.0,30.10,East,79,14.0,20.0,68,0.00,,,0.00,,2013-05-14 16:12:00,
2013-05-14 12:23:00,81.0,69.0,30.10,ENE,65,16.0,26.0,67,0.00,,,0.00,,2013-05-14 16:23:00,
2013-05-14 12:33:00,81.0,69.0,30.10,ENE,69,11.0,24.0,67,0.00,,,0.00,,2013-05-14 16:33:00,
2013-05-14 12:44:00,81.0,69.0,30.10,ENE,69,11.0,24.0,67,0.00,,,0.00,,2013-05-14 16:44:00,
2013-05-14 12:54:00,81.0,68.0,30.10,ENE,77,10.0,22.0,65,0.00,,,0.00,,2013-05-14 16:54:00,
2013-05-14 13:03:00,80.0,68.0,30.10,NE,52,11.0,22.0,66,0.00,,,0.00,,2013-05-14 17:03:00,
2013-05-14 13:13:00,80.0,68.0,30.10,NE,52,11.0,22.0,66,0.00,,,0.00,,2013-05-14 17:13:00,
2013-05-14 13:24:00,80.0,68.0,30.09,ENE,76,12.0,23.0,66,0.00,,,0.00,,2013-05-14 17:24:00,
2013-05-14 13:33:00,81.0,69.0,30.09,East,91,13.0,22.0,66,0.00,,,0.00,,2013-05-14 17:33:00,
2013-05-14 13:43:00,81.0,69.0,30.09,East,91,13.0,22.0,66,0.00,,,0.00,,2013-05-14 17:43:00,
2013-05-14 13:52:00,81.0,69.0,30.09,ENE,76,12.0,20.0,66,0.00,,,0.00,,2013-05-14 17:52:00,
2013-05-14 14:02:00,81.0,68.0,30.09,East,86,12.0,22.0,65,0.00,,,0.00,,2013-05-14 18:02:00,
2013-05-14 14:12:00,81.0,68.0,30.09,East,86,12.0,22.0,65,0.00,,,0.00,,2013-05-14 18:12:00,
2013-05-14 14:22:00,81.0,69.0,30.09,NE,54,12.0,23.0,66,0.00,,,0.00,,2013-05-14 18:22:00,
2013-05-14 14:32:00,81.0,68.0,30.09,East,86,15.0,22.0,64,0.00,,,0.00,,2013-05-14 18:32:00,
2013-05-14 14:42:00,81.0,68.0,30.09,East,86,15.0,22.0,64,0.00,,,0.00,,2013-05-14 18:42:00,
2013-05-14 14:52:00,81.0,68.0,30.07,ENE,66,14.0,21.0,64,0.00,,,0.00,,2013-05-14 18:52:00,
2013-05-14 15:01:00,81.0,68.0,30.07,ENE,61,11.0,21.0,65,0.00,,,0.00,,2013-05-14 19:01:00,
2013-05-14 15:12:00,81.0,68.0,30.07,ENE,61,11.0,21.0,65,0.00,,,0.00,,2013-05-14 19:12:00,
2013-05-14 15:22:00,80.0,67.0,30.07,ENE,76,11.0,24.0,65,0.00,,,0.00,,2013-05-14 19:22:00,
2013-05-14 15:32:00,80.0,68.0,30.06,ENE,67,16.0,24.0,66,0.00,,,0.00,,2013-05-14 19:32:00,
2013-05-14 15:42:00,80.0,68.0,30.06,ENE,67,16.0,24.0,66,0.00,,,0.00,,2013-05-14 19:42:00,
2013-05-14 15:53:00,80.0,67.0,30.06,ENE,63,15.0,24.0,65,0.00,,,0.00,,2013-05-14 19:53:00,
2013-05-14 16:02:00,80.0,67.0,30.06,ENE,74,11.0,20.0,65,0.00,,,0.00,,2013-05-14 20:02:00,
2013-05-14 16:11:00,80.0,67.0,30.06,ENE,74,11.0,20.0,65,0.00,,,0.00,,2013-05-14 20:11:00,
2013-05-14 16:23:00,80.0,67.0,30.06,NE,47,12.0,21.0,64,0.00,,,0.00,,2013-05-14 20:23:00,
2013-05-14 16:33:00,80.0,67.0,30.06,East,98,11.0,20.0,64,0.00,,,0.00,,2013-05-14 20:33:00,
2013-05-14 16:44:00,80.0,67.0,30.06,East,98,11.0,20.0,64,0.00,,,0.00,,2013-05-14 20:44:00,
2013-05-14 16:52:00,80.0,67.0,30.06,ENE,65,16.0,22.0,65,0.00,,,0.00,,2013-05-14 20:52:00,
2013-05-14 17:03:00,80.0,67.0,30.06,NE,36,10.0,22.0,65,0.00,,,0.00,,2013-05-14 21:03:00,
2013-05-14 17:12:00,80.0,67.0,30.06,NE,36,10.0,22.0,65,0.00,,,0.00,,2013-05-14 21:12:00,
2013-05-14 17:23:00,80.0,67.0,30.06,ENE,61,12.0,22.0,65,0.00,,,0.00,,2013-05-14 21:23:00,
2013-05-14 17:33:00,79.0,66.0,30.05,ENE,74,13.0,22.0,65,0.00,,,0.00,,2013-05-14 21:33:00,
2013-05-14 17:43:00,79.0,66.0,30.05,ENE,74,13.0,22.0,65,0.00,,,0.00,,2013-05-14 21:43:00,
2013-05-14 17:53:00,79.0,67.0,30.06,ENE,72,14.0,26.0,66,0.00,,,0.00,,2013-05-14 21:53:00,
2013-05-14 18:03:00,79.0,66.0,30.06,ENE,61,12.0,26.0,65,0.00,,,0.00,,2013-05-14 22:03:00,
2013-05-14 18:13:00,79.0,66.0,30.06,ENE,61,12.0,26.0,65,0.00,,,0.00,,2013-05-14 22:13:00,
2013-05-14 18:24:00,79.0,66.0,30.05,ENE,67,16.0,23.0,65,0.00,,,0.00,,2013-05-14 22:24:00,
2013-05-14 18:34:00,79.0,67.0,30.05,ENE,74,12.0,23.0,66,0.00,,,0.00,,2013-05-14 22:34:00,
2013-05-14 18:45:00,79.0,67.0,30.05,ENE,74,12.0,23.0,66,0.00,,,0.00,,2013-05-14 22:45:00,
2013-05-14 18:55:00,79.0,67.0,30.05,NNE,16,12.0,25.0,66,0.00,,,0.00,,2013-05-14 22:55:00,
2013-05-14 19:03:00,78.0,66.0,30.05,ENE,69,12.0,20.0,67,0.00,,,0.00,,2013-05-14 23:03:00,
2013-05-14 19:12:00,78.0,66.0,30.05,ENE,69,12.0,20.0,67,0.00,,,0.00,,2013-05-14 23:12:00,
2013-05-14 19:22:00,78.0,66.0,30.05,ENE,66,17.0,21.0,66,0.00,,,0.00,,2013-05-14 23:22:00,
2013-05-14 19:32:00,78.0,65.0,30.06,ENE,76,15.0,21.0,65,0.00,,,0.00,,2013-05-14 23:32:00,
2013-05-14 19:44:00,78.0,65.0,30.06,ENE,76,15.0,21.0,65,0.00,,,0.00,,2013-05-14 23:44:00,
2013-05-14 19:53:00,78.0,65.0,30.06,ENE,71,8.0,21.0,65,0.00,,,0.00,,2013-05-14 23:53:00,
2013-05-14 20:02:00,78.0,65.0,30.06,ENE,65,10.0,21.0,65,0.00,,,0.00,,2013-05-15 00:02:00,
2013-05-14 20:11:00,78.0,65.0,30.06,ENE,65,10.0,21.0,65,0.00,,,0.00,,2013-05-15 00:11:00,
2013-05-14 20:21:00,77.0,64.0,30.06,East,92,12.0,22.0,65,0.00,,,0.00,,2013-05-15 00:21:00,
2013-05-14 20:32:00,77.0,65.0,30.06,ENE,60,13.0,20.0,66,0.00,,,0.00,,2013-05-15 00:32:00,
2013-05-14 20:42:00,77.0,65.0,30.06,ENE,60,13.0,20.0,66,0.00,,,0.00,,2013-05-15 00:42:00,
2013-05-14 20:52:00,77.0,65.0,30.06,ENE,74,11.0,20.0,66,0.00,,,0.00,,2013-05-15 00:52:00,
2013-05-14 21:01:00,77.0,64.0,30.07,ENE,65,15.0,22.0,64,0.00,,,0.00,,2013-05-15 01:01:00,
2013-05-14 21:11:00,77.0,64.0,30.07,ENE,65,15.0,22.0,64,0.00,,,0.00,,2013-05-15 01:11:00,
2013-05-14 21:22:00,77.0,65.0,30.08,ENE,63,8.0,20.0,66,0.00,,,0.00,,2013-05-15 01:22:00,
2013-05-14 21:32:00,77.0,64.0,30.08,NE,44,9.0,20.0,65,0.00,,,0.00,,2013-05-15 01:32:00,
2013-05-14 21:42:00,77.0,64.0,30.08,NE,44,9.0,20.0,65,0.00,,,0.00,,2013-05-15 01:42:00,
2013-05-14 21:52:00,77.0,63.0,30.08,East,79,11.0,18.0,63,0.00,,,0.00,,2013-05-15 01:52:00,
2013-05-14 22:02:00,77.0,63.0,30.09,ENE,71,8.0,16.0,62,0.00,,,0.00,,2013-05-15 02:02:00,
2013-05-14 22:11:00,77.0,63.0,30.09,ENE,71,8.0,16.0,62,0.00,,,0.00,,2013-05-15 02:11:00,
2013-05-14 22:22:00,77.0,64.0,30.09,NE,54,8.0,17.0,64,0.00,,,0.00,,2013-05-15 02:22:00,
2013-05-14 22:32:00,77.0,63.0,30.10,NE,51,10.0,17.0,63,0.00,,,0.00,,2013-05-15 02:32:00,
2013-05-14 22:42:00,77.0,63.0,30.10,NE,51,10.0,17.0,63,0.00,,,0.00,,2013-05-15 02:42:00,
2013-05-14 22:52:00,77.0,64.0,30.09,ENE,78,10.0,18.0,64,0.00,,,0.00,,2013-05-15 02:52:00,
2013-05-14 23:01:00,77.0,64.0,30.10,ENE,58,7.0,17.0,64,0.00,,,0.00,,2013-05-15 03:01:00,
2013-05-14 23:13:00,77.0,64.0,30.10,ENE,58,7.0,17.0,64,0.00,,,0.00,,2013-05-15 03:13:00,
2013-05-14 23:22:00,77.0,64.0,30.10,ENE,73,9.0,17.0,64,0.00,,,0.00,,2013-05-15 03:22:00,
2013-05-14 23:33:00,77.0,64.0,30.10,East,86,7.0,18.0,64,0.00,,,0.00,,2013-05-15 03:33:00,
2013-05-14 23:44:00,77.0,63.0,30.10,ENE,59,8.0,18.0,62,0.00,,,0.00,,2013-05-15 03:44:00,
2013-05-14 23:54:00,77.0,63.0,30.10,ENE,59,8.0,18.0,62,0.00,,,0.00,,2013-05-15 03:54:00,